Date String (YYYY-MM-DD hh:mm:ss) UTC,Instrument flags,Ambient pressure (hPa),Sample flow (lpm),Bypass flow (lpm),Sample temperature (°C),Ambient temperature (°C),ASC tube jacket temperature (°C),LED temperature (°C),Box temperature (°C),Sample RH (%),Span deviation,Mass concentration (μg/m³),Mass concentration (μg/m³),Mass concentration (μg/m³)
DateTimeUTC,F1_M11,P_M11,Q1_M11,Q2_M11,T1_M11,T2_M11,T3_M11,T4_M11,T5_M11,U1_M11,ZSPAN_M11,X0_M11,X2_M11,X1_M11
2022-12-24 07:00:00,,0826.9,4.97,0.00,21.3,21.3,00.0,30.0,22.9,04.2,0004.3,0018.65,0012.60,0011.84
2022-12-24 07:01:00,,0826.8,5.03,0.00,21.1,19.8,00.0,30.0,22.5,04.3,0004.0,0018.17,0012.23,0011.49
2022-12-24 07:02:00,,0826.8,4.99,0.00,20.9,18.7,00.0,30.0,22.1,04.3,0003.8,0017.45,0011.67,0010.95
2022-12-24 07:03:00,,0826.7,4.98,0.00,20.8,18.3,00.0,29.9,21.8,04.3,0003.8,0017.42,0011.33,0010.60
2022-12-24 07:04:00,,0826.5,5.00,0.00,20.8,19.6,00.0,29.8,22.1,04.4,0003.7,0017.81,0011.29,0010.56
2022-12-24 07:05:00,,0826.5,5.04,0.00,20.9,20.6,00.0,29.8,22.4,04.5,0003.4,0017.79,0011.28,0010.59
2022-12-24 07:06:00,,0826.5,4.96,0.00,21.0,21.4,00.0,29.8,22.7,04.5,0003.3,0017.86,0011.41,0010.67
2022-12-24 07:07:00,,0826.5,5.05,0.00,21.1,21.9,00.0,29.8,22.9,04.5,0003.2,0018.54,0011.58,0010.85
2022-12-24 07:08:00,,0826.4,4.95,0.00,21.2,21.5,00.0,29.9,22.9,04.5,0002.8,0018.87,0011.83,0011.14
2022-12-24 07:09:00,,0826.3,5.03,0.00,21.1,19.8,00.0,29.9,22.3,04.6,0002.5,0019.37,0012.10,0011.39
2022-12-24 07:10:00,,0826.5,4.99,0.00,20.8,18.4,00.0,29.9,21.9,04.6,0002.2,0020.00,0012.25,0011.55
2022-12-24 07:11:00,,0826.3,4.96,0.00,20.8,19.1,00.0,29.8,22.0,04.6,0002.2,0020.15,0012.37,0011.69
2022-12-24 07:12:00,,0826.2,5.03,0.00,20.9,20.3,00.0,29.7,22.3,04.5,0002.3,0020.58,0012.48,0011.81
2022-12-24 07:13:00,,0826.1,4.99,0.00,21.0,21.3,00.0,29.7,22.6,04.5,0002.1,0021.20,0012.69,0012.01
2022-12-24 07:14:00,,0826.0,5.00,0.00,21.1,21.8,00.0,29.8,22.8,04.5,0002.2,0021.10,0012.72,0012.04
2022-12-24 07:15:00,,0825.8,5.01,0.00,21.1,21.0,00.0,29.8,22.7,04.5,0002.1,0020.62,0012.48,0011.83
2022-12-24 07:16:00,,0825.8,4.97,0.00,21.0,20.0,00.0,29.9,22.4,04.6,0002.2,0020.29,0012.20,0011.53
2022-12-24 07:17:00,,0825.6,5.02,0.00,20.8,18.8,00.0,29.9,22.0,04.7,0002.2,0019.98,0011.69,0011.06
2022-12-24 07:18:00,,0825.6,5.03,0.00,20.7,18.4,00.0,29.8,21.8,05.2,0002.1,0018.51,0011.00,0010.38
2022-12-24 07:19:00,,0825.5,4.99,0.00,20.8,19.9,00.0,29.7,22.2,06.0,0002.3,0018.34,0010.19,0009.56
2022-12-24 07:20:00,,0825.6,4.99,0.00,20.9,21.0,00.0,29.7,22.5,06.6,0002.9,0017.43,0009.36,0008.71
2022-12-24 07:21:00,,0825.6,5.04,0.00,21.0,21.9,00.0,29.7,22.8,07.1,0003.1,0016.01,0008.59,0007.92
2022-12-24 07:22:00,,0825.8,4.96,0.00,21.1,21.7,00.0,29.8,22.9,07.6,0003.0,0014.83,0007.72,0007.13
2022-12-24 07:23:00,,0826.0,5.04,0.00,21.1,20.8,00.0,29.9,22.7,08.0,0003.0,0013.56,0006.96,0006.40
2022-12-24 07:24:00,,0826.0,4.95,0.00,21.0,20.2,00.0,29.9,22.5,07.9,0003.0,0012.83,0006.49,0005.94
2022-12-24 07:25:00,,0825.8,5.01,0.00,21.0,19.6,00.0,29.9,22.3,07.2,0002.9,0012.56,0006.33,0005.80
2022-12-24 07:26:00,,0826.0,5.02,0.00,20.9,19.5,00.0,29.8,22.3,06.8,0003.4,0012.72,0006.39,0005.86
2022-12-24 07:27:00,,0826.0,4.96,0.00,21.0,20.6,00.0,29.8,22.6,06.4,0003.8,0012.81,0006.48,0005.97
2022-12-24 07:28:00,,0826.0,5.01,0.00,21.1,21.6,00.0,29.8,22.9,06.0,0004.0,0012.64,0006.62,0006.10
2022-12-24 07:29:00,,0826.0,5.00,0.00,21.2,21.6,00.0,29.9,23.0,06.2,0003.9,0013.13,0006.87,0006.35
2022-12-24 07:30:00,,0825.9,4.98,0.00,21.2,21.0,00.0,29.9,22.9,06.3,0003.4,0013.02,0007.22,0006.67
2022-12-24 07:31:00,,0825.8,5.03,0.00,21.2,20.5,00.0,29.9,22.8,07.0,0002.8,0013.02,0007.35,0006.85
2022-12-24 07:32:00,,0825.9,4.98,0.00,21.1,20.0,00.0,30.0,22.7,07.4,0002.4,0013.17,0007.50,0007.03
2022-12-24 07:33:00,,0826.0,4.97,0.00,21.1,20.1,00.0,29.9,22.7,08.0,0002.0,0013.33,0007.58,0007.13
2022-12-24 07:34:00,,0826.0,5.01,0.00,21.2,21.2,00.0,29.9,23.0,07.7,0002.3,0013.64,0007.85,0007.38
2022-12-24 07:35:00,,0826.1,5.03,0.00,21.4,22.1,00.0,29.9,23.2,06.8,0002.5,0014.07,0008.39,0007.89
2022-12-24 07:36:00,,0826.0,4.95,0.00,21.5,21.9,00.0,30.0,23.3,06.1,0002.4,0014.82,0008.50,0007.99
2022-12-24 07:37:00,,0826.0,5.03,0.00,21.4,21.2,00.0,30.1,23.1,06.0,0002.2,0014.07,0008.18,0007.69
2022-12-24 07:38:00,,0825.8,5.03,0.00,21.4,20.6,00.0,30.1,23.0,06.2,0002.3,0013.48,0007.74,0007.27
2022-12-24 07:39:00,,0825.9,4.96,0.00,21.3,20.1,00.0,30.1,22.8,07.4,0001.9,0012.80,0007.22,0006.79
2022-12-24 07:40:00,,0826.0,4.98,0.00,21.3,19.7,00.0,30.1,22.7,08.0,0001.6,0012.18,0006.83,0006.41
2022-12-24 07:41:00,,0826.1,5.02,0.00,21.3,20.6,00.0,30.1,22.9,07.6,0002.2,0011.63,0006.60,0006.21
2022-12-24 07:42:00,,0826.2,5.02,0.00,21.4,21.7,00.0,30.1,23.2,06.4,0002.9,0011.76,0006.80,0006.35
2022-12-24 07:43:00,,0826.2,4.96,0.00,21.5,22.2,00.0,30.1,23.4,05.7,0003.2,0012.86,0007.14,0006.62
2022-12-24 07:44:00,,0826.0,5.04,0.00,21.6,21.6,00.0,30.2,23.4,05.2,0003.0,0013.63,0007.55,0006.99
2022-12-24 07:45:00,,0825.9,4.95,0.00,21.6,21.0,00.0,30.2,23.2,05.0,0003.0,0014.58,0007.70,0007.14
2022-12-24 07:46:00,,0826.1,5.02,0.00,21.5,20.5,00.0,30.2,23.1,06.0,0002.9,0014.07,0007.23,0006.72
2022-12-24 07:47:00,,0826.2,5.03,0.00,21.5,20.0,00.0,30.2,22.9,05.6,0003.4,0012.81,0006.88,0006.35
2022-12-24 07:48:00,,0826.2,5.00,0.00,21.4,19.7,00.0,30.2,22.8,05.0,0003.0,0012.92,0007.00,0006.46
2022-12-24 07:49:00,,0826.2,4.96,0.00,21.4,20.5,00.0,30.2,23.0,04.6,0003.1,0013.57,0007.41,0006.84
2022-12-24 07:50:00,,0826.2,5.03,0.00,21.5,21.5,00.0,30.2,23.3,04.5,0003.0,0014.43,0008.10,0007.48
2022-12-24 07:51:00,,0826.2,4.97,0.00,21.6,22.1,00.0,30.2,23.5,04.4,0002.8,0015.28,0008.82,0008.20
2022-12-24 07:52:00,,0826.3,5.02,0.00,21.6,21.5,00.0,30.3,23.4,04.4,0002.7,0016.14,0009.41,0008.74
2022-12-24 07:53:00,,0826.3,5.02,0.00,21.6,21.0,00.0,30.3,23.3,04.4,0002.5,0016.62,0009.82,0009.17
2022-12-24 07:54:00,,0826.2,4.99,0.00,21.6,20.5,00.0,30.3,23.1,04.4,0002.4,0016.41,0010.17,0009.54
2022-12-24 07:55:00,,0826.2,4.97,0.00,21.5,20.1,00.0,30.3,23.0,04.4,0002.5,0017.61,0010.60,0009.97
2022-12-24 07:56:00,,0826.2,5.03,0.00,21.5,20.3,00.0,30.3,23.0,04.4,0002.2,0018.03,0011.14,0010.47
2022-12-24 07:57:00,,0826.2,5.01,0.00,21.6,21.4,00.0,30.3,23.3,04.4,0002.0,0019.02,0011.94,0011.24
2022-12-24 07:58:00,,0826.2,4.96,0.00,21.7,22.3,00.0,30.3,23.6,04.4,0002.0,0019.76,0012.60,0011.88
2022-12-24 07:59:00,,0826.2,5.01,0.00,21.8,22.1,00.0,30.3,23.6,04.4,0002.2,0020.19,0012.99,0012.24
